Location: *
(45.4590°N, 16.3650°E)
Time: 09:06:04
(UTC+00:00)

COSMOS 2428 - Pass Details

Date: 17 January 2020
Orbit: 844 x 858 km, 70.9° (Epoch: 27 February)

Event Time Altitude Azimuth Distance (km) Brightness Sun altitude
Rises 17:46:12 0° 328° (NNW) 3,440 6.2 -21.8°
Reaches altitude 10° 17:48:46 10° 322° (NW) 2,500 5.5 -22.2°
Maximum altitude 17:54:09 44° 253° (WSW) 1,180 3.9 -23.2°
Drops below altitude 10° 17:59:31 10° 183° (S) 2,483 5.2 -24.1°
Sets 18:02:04 0° 176° (S) 3,413 5.9 -24.5°
